[[{"header":{"parameterUnit":"m.s-1","parameterCategory":1,"la1":30.2991,"la2":30.254,"lo1":-89.0895,"lo2":-89.0444,"dy":0.0017,"dx":0.0017,"nx":28,"ny":28,"refTime":"2024-07-15T09:00:00:Z","depth":0,"parameterNumber":2,"parameterNumberName":"U-component_of_WINDS"},"data":[0,0,0,0,0,0,0,0,0,0,0,0,0,0,0,0,0,0,0,0,0,0,0,0,0,0,0,0,0,0,0,0,0,0,0,0,0,0,0,0,0,0,0,0,0,0,0,0,0,0,0,0,0,0,0,0,0,0,3.7848,3.7849,0,3.7981,3.7983,3.7984,3.7954,3.7952,3.7949,3.7947,3.8084,3.809,3.8096,0,0,0,0,0,0,0,0,0,0,0,0,0,3.7563,3.7569,3.7847,3.7849,3.7851,3.7981,3.7983,3.7985,3.7955,3.7952,3.7949,3.7946,3.8082,3.8089,3.8097,0,0,0,0,0,0,0,0,0,0,0,0,0,3.7691,3.7571,3.7847,3.7851,3.7853,3.7981,3.7983,3.7985,3.7955,3.7952,3.7948,3.7944,3.808,3.8089,3.8098,3.8229,0,0,3.8125,3.8129,0,0,0,0,0,0,0,0,3.7684,3.7701,3.7849,3.7851,3.7854,3.7947,3.7933,3.8067,3.7956,3.7917,3.7947,3.7942,3.8042,3.8054,3.8087,3.8236,3.8242,3.8126,3.8131,3.8135,3.8138,0,0,0,0,0,0,0,3.7675,3.7696,3.79,3.7851,3.7854,3.7846,3.786,3.7958,3.7999,3.792,3.7918,3.7934,3.8042,3.8079,3.809,3.8244,3.8126,3.8134,3.8139,3.8143,3.8502,3.8506,0,0,0,0,0,0,3.7664,3.7688,3.7896,3.7904,3.7758,3.7854,3.787,3.7921,3.7998,3.8006,3.7937,3.7932,3.8065,3.808,3.8095,3.8251,3.8135,3.8144,3.8149,3.8498,3.8503,3.8508,0,0,0,0,0,0,3.7658,3.7683,3.7891,3.7796,3.7822,3.7863,3.7921,3.7926,3.7962,3.8011,3.8018,3.7967,3.8063,3.8082,3.8195,3.8255,3.8148,3.8156,3.8494,3.85,3.8506,3.8565,0,0,0,0,0,0,3.765,3.7681,3.7733,3.7797,3.7827,3.799,3.7925,3.7931,3.7977,3.7972,3.8041,3.8048,3.8061,3.8182,3.8204,3.8266,3.8163,3.8488,3.8496,3.8504,3.8558,3.8573,3.8585,0,0,0,0,0,3.764,3.7745,3.7735,3.7761,3.7892,3.7993,3.801,3.8022,3.7983,3.8033,3.8064,3.8046,3.8245,3.8194,3.8218,3.8284,3.8485,3.8494,3.8503,3.8552,3.857,3.8585,0,0,0,0,0,0,3.7687,3.7754,3.7744,3.7873,3.7927,3.7988,3.8053,3.8042,3.8109,3.8101,3.8114,3.813,3.8244,3.8276,3.8217,3.8413,3.8359,3.8374,3.8388,3.8405,3.8419,3.8407,3.8171,0,0,0,0,0,3.7712,3.779,3.7844,3.7952,3.798,3.8012,3.8056,3.8061,3.8118,3.8141,3.8181,3.8237,3.8311,3.836,3.8432,3.8563,3.8576,3.862,3.8634,3.8645,3.8656,3.8724,3.8743,3.8538,3.8538,3.8538,0,0,3.7766,3.7811,3.786,3.7962,3.8005,3.8083,3.8031,3.8117,3.8175,3.8154,3.8262,3.8293,3.8356,3.8477,3.8533,3.8507,3.8716,3.8656,3.8665,3.8671,3.8735,3.8754,3.8772,3.8545,3.8544,3.8543,0,0,3.7901,3.7945,3.8038,3.8082,3.8147,3.8167,3.8189,3.8251,3.827,3.8379,3.8364,3.8432,3.8562,3.8606,3.8646,3.8795,3.8779,3.8819,3.8889,3.8954,3.897,3.8984,3.9034,3.9052,3.8831,3.8831,3.8831,0,3.7959,3.8076,3.8088,3.8174,3.8218,3.8202,3.8295,3.8337,3.8423,3.8453,3.8423,3.8583,3.8625,3.8754,3.879,3.8824,3.8847,3.881,3.8967,3.8982,3.8995,3.9042,3.9061,3.8835,3.8834,3.8834,3.8834,0,3.8142,3.8223,3.8291,3.8371,3.8424,3.8513,3.8537,3.8588,3.8588,3.861,3.8719,3.8768,3.8848,3.888,3.8881,3.9008,3.899,3.8964,3.8909,3.9018,3.9063,3.9081,3.8841,3.8839,3.8838,3.8837,0,0,3.8311,3.8395,3.8419,3.8454,3.8524,3.8586,3.8674,3.8751,3.8793,3.8853,3.8924,3.9033,3.9008,3.9053,3.9059,3.9117,3.9227,3.9083,3.9085,3.9105,3.9366,3.9383,3.9404,3.9218,3.9222,3.9224,3.9359,0,3.845,3.8603,3.8615,3.8753,3.8826,3.8811,3.8887,3.8937,3.896,3.9025,3.9051,3.9126,3.909,3.9116,3.9173,3.9202,3.9279,3.9193,3.9282,3.9286,3.9264,3.9428,3.9447,3.9571,3.9377,3.938,3.9382,0,3.8633,3.8695,3.884,3.8896,3.8927,3.8995,3.9064,3.9128,3.9183,3.9195,3.9244,3.9241,3.9329,3.9273,3.9393,3.9333,3.9371,3.9391,3.9396,3.9402,3.9338,3.9435,3.9612,3.9629,3.9411,3.9408,3.9406,0,3.8737,3.8858,3.8959,3.899,3.9058,3.9105,3.9136,3.9188,3.9232,3.9293,3.9321,3.9393,3.9431,3.9485,3.9501,3.9459,3.9619,3.9565,3.9629,3.9629,3.9662,3.9659,3.9843,3.9692,3.9691,3.9691,3.969,0,3.8889,3.8977,3.9005,3.9068,3.9165,3.9177,3.9273,3.9301,3.9347,3.9412,3.9405,3.9467,3.9485,3.955,3.9563,3.9658,3.9676,3.9687,3.9689,3.9686,3.9684,3.9709,3.9699,3.9696,3.9695,3.9694,3.9693,0,3.9021,3.9044,3.9152,3.9207,3.9223,3.9292,3.9339,3.9397,3.9419,3.9502,3.9522,3.9556,3.9631,3.9652,3.9744,3.9752,3.9862,3.9858,3.9843,3.9842,3.9904,3.9896,4.0108,4.0135,3.9969,3.997,3.9972,0,3.9115,3.9182,3.9244,3.9287,3.9319,3.9389,3.9433,3.9447,3.9494,3.956,3.961,3.9685,3.9744,3.9865,3.9897,3.9966,3.9961,4.0031,3.9971,3.9965,3.9958,3.9952,3.9957,4.0041,4.0043,4.0044,4.0045,0,3.9278,3.9285,3.935,3.9417,3.947,3.9525,3.9576,3.9612,3.9633,3.9686,3.9762,3.9808,3.99,3.9972,4.0041,4.0072,4.0061,4.0064,4.0082,4.0078,4.0065,4.0069,3.987,4.0058,4.0057,4.0056,4.0055,4.0055,3.9392,3.9449,3.95,3.9571,3.9611,3.9659,3.9715,3.9743,3.9807,3.9881,3.9886,3.9968,4.0019,4.011,4.0145,4.0208,4.0187,4.0214,4.022,4.0226,4.0229,4.0057,4.0221,4.0221,4.022,4.022,4.022,0,3.9551,3.9583,3.9648,3.9719,3.9774,3.976,3.9816,3.9862,3.9934,3.9983,4.0041,4.0127,4.0197,4.0233,4.0302,4.0345,4.0342,4.0363,4.0358,4.0364,4.0245,4.0221,4.0364,4.0364,4.0364,4.0364,4.0364,4.0364,3.964,3.9735,3.9748,3.9862,3.9893,3.9972,4.0004,4.0048,4.0086,4.0182,4.0239,4.0262,4.0305,4.0377,4.0439,4.0448,4.0472,4.0495,4.0501,4.0388,4.0373,4.0359,4.0336,4.0501,4.0501,4.0614,4.0615,4.0616]},{"header":{"parameterUnit":"m.s-1","parameterCategory":1,"la1":30.2991,"la2":30.254,"lo1":-89.0895,"lo2":-89.0444,"dy":0.0017,"dx":0.0017,"nx":28,"ny":28,"refTime":"2024-07-15T09:00:00:Z","depth":0,"parameterNumber":3,"parameterNumberName":"V-component_of_WINDS"},"data":[0,0,0,0,0,0,0,0,0,0,0,0,0,0,0,0,0,0,0,0,0,0,0,0,0,0,0,0,0,0,0,0,0,0,0,0,0,0,0,0,0,0,0,0,0,0,0,0,0,0,0,0,0,0,0,0,0,0,1.8608,1.8609,0,1.8693,1.8694,1.8695,1.8681,1.8679,1.8678,1.8677,1.8763,1.8767,1.877,0,0,0,0,0,0,0,0,0,0,0,0,0,1.8434,1.8438,1.8608,1.8609,1.861,1.8692,1.8694,1.8695,1.8681,1.8679,1.8678,1.8676,1.8762,1.8766,1.8771,0,0,0,0,0,0,0,0,0,0,0,0,0,1.8513,1.8439,1.8608,1.8613,1.8615,1.8692,1.8694,1.8695,1.8681,1.8679,1.8677,1.8675,1.8761,1.8766,1.8771,1.8849,0,0,1.8788,1.879,0,0,0,0,0,0,0,0,1.8509,1.852,1.8611,1.8613,1.8615,1.8674,1.8664,1.8747,1.8682,1.8656,1.8676,1.8674,1.8735,1.8743,1.8763,1.8853,1.8857,1.8789,1.8792,1.8794,1.8796,0,0,0,0,0,0,0,1.8503,1.8516,1.8642,1.8613,1.8615,1.8611,1.862,1.868,1.8707,1.8658,1.8657,1.8668,1.8736,1.8758,1.8765,1.8858,1.8788,1.8793,1.8797,1.8799,1.9015,1.9017,0,0,0,0,0,0,1.8496,1.8512,1.8639,1.8644,1.8555,1.8616,1.8626,1.8657,1.8706,1.8712,1.8669,1.8667,1.875,1.8759,1.8768,1.8862,1.8794,1.8799,1.8803,1.9012,1.9015,1.9018,0,0,0,0,0,0,1.8493,1.8508,1.8635,1.8578,1.8594,1.8621,1.8657,1.866,1.8682,1.8715,1.8719,1.8687,1.8748,1.8761,1.8829,1.8865,1.8802,1.8807,1.9009,1.9013,1.9016,1.9051,0,0,0,0,0,0,1.8488,1.8507,1.8537,1.8578,1.8597,1.8695,1.8659,1.8663,1.8692,1.8689,1.8733,1.8738,1.8748,1.8821,1.8834,1.8871,1.8811,1.9006,1.9011,1.9015,1.9046,1.9055,1.9062,0,0,0,0,0,1.8482,1.8543,1.8538,1.8554,1.8635,1.8697,1.8708,1.8718,1.8695,1.8725,1.8746,1.8736,1.8859,1.8828,1.8843,1.8882,1.9004,1.901,1.9015,1.9043,1.9053,1.9062,0,0,0,0,0,0,1.8506,1.8549,1.8544,1.8621,1.8655,1.8695,1.8733,1.8728,1.877,1.8766,1.8776,1.8786,1.8855,1.8875,1.884,1.8959,1.8928,1.8937,1.8944,1.8954,1.8962,1.8956,1.8816,0,0,0,0,0,1.852,1.8567,1.8602,1.8666,1.8684,1.8706,1.8733,1.8738,1.8774,1.8788,1.8814,1.8849,1.8895,1.8926,1.897,1.9049,1.9058,1.9083,1.9091,1.9097,1.9105,1.9148,1.9159,1.9036,1.9036,1.9036,0,0,1.855,1.8579,1.8608,1.8672,1.8699,1.8747,1.8718,1.877,1.8806,1.8796,1.8862,1.8882,1.8922,1.8996,1.9029,1.9015,1.9141,1.9104,1.9109,1.9114,1.9154,1.9166,1.9176,1.9039,1.9039,1.9038,0,0,1.8629,1.8656,1.8712,1.874,1.8781,1.8795,1.8809,1.8849,1.8861,1.8928,1.8921,1.8963,1.9043,1.9072,1.9097,1.9185,1.9178,1.9199,1.9241,1.9282,1.9292,1.9301,1.9332,1.9343,1.9206,1.9206,1.9207,0,1.8661,1.8733,1.8742,1.8795,1.8823,1.8815,1.8872,1.8899,1.8953,1.8972,1.8954,1.9054,1.908,1.916,1.9181,1.9202,1.9217,1.9195,1.929,1.9299,1.9307,1.9337,1.9349,1.9209,1.9208,1.9208,1.9208,0,1.8771,1.8821,1.8861,1.8913,1.8945,1.9,1.9017,1.9048,1.905,1.9065,1.9132,1.9163,1.9214,1.9233,1.9235,1.9313,1.9302,1.9287,1.9256,1.9321,1.9349,1.9361,1.9212,1.9211,1.9211,1.921,0,0,1.8869,1.8923,1.8938,1.8961,1.9006,1.9045,1.9098,1.9147,1.9174,1.9211,1.9256,1.9323,1.9309,1.9337,1.9342,1.9378,1.9446,1.9359,1.936,1.9374,1.9534,1.9545,1.9558,1.9441,1.9444,1.9445,1.953,0,1.8952,1.9047,1.9056,1.9142,1.9188,1.9181,1.9227,1.9259,1.9275,1.9316,1.9333,1.938,1.9358,1.9375,1.9411,1.943,1.9478,1.9424,1.9484,1.9486,1.9474,1.9573,1.9586,1.9665,1.9542,1.9543,1.9545,0,1.9063,1.9102,1.9192,1.9229,1.9249,1.9291,1.9336,1.9376,1.9411,1.942,1.9451,1.9451,1.9506,1.9472,1.9547,1.951,1.9535,1.9548,1.9551,1.9558,1.952,1.9583,1.969,1.9702,1.9562,1.9561,1.956,0,1.9125,1.9201,1.9264,1.9284,1.9329,1.9359,1.9379,1.9413,1.9441,1.948,1.9499,1.9544,1.9569,1.9603,1.9615,1.9589,1.969,1.9657,1.9699,1.9699,1.9721,1.972,1.9834,1.9736,1.9736,1.9736,1.9735,0,1.9218,1.9273,1.9293,1.9332,1.9393,1.9402,1.9463,1.9481,1.9511,1.9554,1.955,1.959,1.9602,1.9644,1.9654,1.9715,1.9726,1.9734,1.9736,1.9735,1.9734,1.9752,1.9747,1.9739,1.9738,1.9738,1.9737,0,1.9298,1.9314,1.9382,1.9419,1.9429,1.9473,1.9504,1.9542,1.9556,1.9609,1.9622,1.9645,1.9694,1.9709,1.9768,1.9774,1.9845,1.9842,1.9833,1.9834,1.9875,1.9871,2.0005,2.0023,1.9913,1.9914,1.9915,0,1.9356,1.9399,1.9439,1.9467,1.9489,1.9534,1.9563,1.9573,1.9603,1.9646,1.9678,1.9726,1.9766,1.9844,1.9866,1.9911,1.9909,1.9953,1.9915,1.9913,1.9909,1.9907,1.9911,1.996,1.9961,1.9962,1.9963,0,1.9458,1.9464,1.9505,1.955,1.9584,1.9619,1.9654,1.9677,1.9691,1.9725,1.9775,1.9805,1.9865,1.9913,1.9958,1.9979,1.9973,1.9974,1.9986,1.9986,1.9979,1.9983,1.9853,1.9971,1.997,1.997,1.9969,1.9969,1.953,1.9567,1.9601,1.9647,1.9674,1.9705,1.9742,1.9761,1.9802,1.9852,1.9855,1.9909,1.9943,2.0003,2.0025,2.0067,2.0055,2.0072,2.0077,2.0081,2.0084,1.9971,2.0076,2.0075,2.0075,2.0075,2.0075,0,1.9631,1.9653,1.9695,1.9743,1.9779,1.977,1.9807,1.9838,1.9885,1.9917,1.9956,2.0012,2.0059,2.0083,2.0129,2.0158,2.0157,2.017,2.0168,2.0173,2.0093,2.0078,2.017,2.017,2.017,2.017,2.017,2.017,1.9688,1.975,1.976,1.9834,1.9855,1.9908,1.993,1.9959,1.9984,2.0048,2.0086,2.0102,2.0131,2.0178,2.022,2.0226,2.0243,2.0258,2.0263,2.0188,2.0178,2.0169,2.0155,2.0262,2.0262,2.0339,2.0339,2.034]}]]